{"data":{"norad_id":59435,"epoch":"2026-09-21T18:03:18.027072Z","epoch_age_seconds":57121,"freshness":"FRESH","line1":"1 59435U 24065Q   26264.75229198  .00001786  00000+0  64057-4 0  9993","line2":"2 59435  53.1594  87.7104 0001291  88.2106 271.9044 15.34367978138990","mean_motion":15.34367978,"eccentricity":0.0001291,"inclination_deg":53.1594,"raan_deg":87.7104,"arg_perigee_deg":88.2106,"mean_anomaly_deg":271.9044,"bstar":6.4057e-5,"rev_number":13899,"period_min":93.849716668162,"perigee_km":461.91525323223,"apogee_km":463.68158275715,"semimajor_km":6840.9354179947,"source":"CELESTRAK","updated_at":"2026-09-22T09:00:48.941368Z"}}